• En España
  • Lista de países
  • Para 7 días
  • Temperatura del agua
  • Mapa Satelital
  • El tiempo en el mapa
  • Informadores
  • user-avatar
    Iniciar sesión

    Tiempo cada hora Djelfa

    Hoy, 20 Agosto, Lunes

    Tiempo Temperatura Precipitaciones Viento Presión Humedad
    00:00 +24°C° 0 mm 2 mps 667 mmHg 46%
    01:00 +24°C° 0 mm 2 mps 667 mmHg 47%
    02:00 +23°C° 0 mm 2 mps 667 mmHg 48%
    03:00 +23°C° 0 mm 2 mps 666 mmHg 49%
    04:00 +21°C° 0 mm 2 mps 666 mmHg 50%
    05:00 +21°C° 0 mm 2 mps 666 mmHg 50%
    06:00 +21°C° 0 mm 2 mps 666 mmHg 51%
    07:00 +23°C° 0 mm 2 mps 667 mmHg 46%
    08:00 +24°C° 0 mm 3 mps 667 mmHg 41%
    09:00 +25°C° 0 mm 3 mps 667 mmHg 36%
    10:00 +26°C° 0 mm 3 mps 667 mmHg 33%
    11:00 +27°C° 0 mm 3 mps 668 mmHg 31%
    12:00 +28°C° 0 mm 3 mps 668 mmHg 28%
    13:00 +28°C° 0 mm 3 mps 667 mmHg 26%
    14:00 +29°C° 0 mm 4 mps 667 mmHg 25%
    15:00 +29°C° 0 mm 4 mps 667 mmHg 23%
    16:00 +29°C° 0 mm 4 mps 667 mmHg 23%
    17:00 +29°C° 0 mm 4 mps 667 mmHg 23%
    18:00 +28°C° 0 mm 4 mps 666 mmHg 24%
    19:00 +28°C° 0 mm 4 mps 667 mmHg 27%
    20:00 +27°C° 0 mm 4 mps 667 mmHg 30%
    21:00 +26°C° 0 mm 4 mps 667 mmHg 33%
    22:00 +25°C° 0 mm 4 mps 667 mmHg 38%
    23:00 +25°C° 0 mm 4 mps 667 mmHg 44%

    Mañana, 21 Agosto, Martes

    Tiempo Temperatura Precipitaciones Viento Presión Humedad
    00:00 +24°C° 0 mm 3 mps 666 mmHg 49%
    01:00 +22°C° 0 mm 3 mps 666 mmHg 51%
    02:00 +22°C° 0 mm 3 mps 666 mmHg 54%
    03:00 +23°C° 0 mm 2 mps 666 mmHg 56%
    04:00 +21°C° 0 mm 2 mps 666 mmHg 57%
    05:00 +22°C° 0 mm 1 mps 666 mmHg 58%
    06:00 +22°C° 0 mm 1 mps 666 mmHg 59%
    07:00 +23°C° 0 mm 1 mps 667 mmHg 53%
    08:00 +24°C° 0 mm 1 mps 667 mmHg 47%
    09:00 +25°C° 0 mm 1 mps 667 mmHg 42%
    10:00 +26°C° 0 mm 1 mps 667 mmHg 38%
    11:00 +27°C° 0 mm 2 mps 667 mmHg 33%
    12:00 +29°C° 0 mm 2 mps 668 mmHg 29%
    13:00 +29°C° 0 mm 2 mps 667 mmHg 28%
    14:00 +29°C° 0 mm 2 mps 667 mmHg 27%
    15:00 +30°C° 0 mm 3 mps 666 mmHg 26%
    16:00 +30°C° 0 mm 3 mps 666 mmHg 27%
    17:00 +29°C° 0 mm 3 mps 666 mmHg 27%
    18:00 +29°C° 0 mm 2 mps 666 mmHg 27%
    19:00 +28°C° 0,3 mm 2 mps 666 mmHg 29%
    20:00 +28°C° 0,3 mm 2 mps 667 mmHg 31%
    21:00 +27°C° 0,3 mm 2 mps 667 mmHg 32%
    22:00 +26°C° 0 mm 2 mps 667 mmHg 34%
    23:00 +26°C° 0 mm 2 mps 667 mmHg 37%

    Pasado mañana, 22 Agosto, Miércoles

    Tiempo Temperatura Precipitaciones Viento Presión Humedad
    00:00 +25°C° 0 mm 2 mps 667 mmHg 39%
    01:00 +25°C° 0 mm 2 mps 666 mmHg 41%
    02:00 +25°C° 0 mm 2 mps 666 mmHg 42%
    03:00 +24°C° 0 mm 2 mps 666 mmHg 44%
    04:00 +24°C° 0,5 mm 2 mps 666 mmHg 46%
    05:00 +24°C° 0,5 mm 1 mps 666 mmHg 48%
    06:00 +24°C° 0,5 mm 1 mps 666 mmHg 50%
    07:00 +25°C° 0,2 mm 2 mps 667 mmHg 46%
    08:00 +26°C° 0,2 mm 3 mps 667 mmHg 43%
    09:00 +27°C° 0,2 mm 3 mps 667 mmHg 40%
    10:00 +28°C° 0 mm 3 mps 668 mmHg 37%
    11:00 +29°C° 0 mm 4 mps 668 mmHg 34%
    12:00 +30°C° 0 mm 4 mps 668 mmHg 31%
    13:00 +30°C° 0,2 mm 4 mps 667 mmHg 32%
    14:00 +30°C° 0,2 mm 4 mps 667 mmHg 32%
    15:00 +30°C° 0,2 mm 4 mps 667 mmHg 32%
    16:00 +29°C° 1,2 mm 3 mps 667 mmHg 35%
    17:00 +28°C° 1,2 mm 3 mps 667 mmHg 38%
    18:00 +28°C° 1,2 mm 2 mps 666 mmHg 40%
    19:00 +27°C° 0 mm 2 mps 667 mmHg 41%
    20:00 +27°C° 0 mm 2 mps 667 mmHg 42%
    21:00 +27°C° 0 mm 3 mps 668 mmHg 43%
    22:00 +26°C° 0 mm 2 mps 668 mmHg 47%
    23:00 +25°C° 0 mm 2 mps 667 mmHg 50%

    23 Agosto, Jueves

    Tiempo Temperatura Precipitaciones Viento Presión Humedad
    00:00 +24°C° 0 mm 2 mps 667 mmHg 54%
    01:00 +24°C° 0 mm 2 mps 666 mmHg 55%
    02:00 +24°C° 0 mm 2 mps 666 mmHg 56%
    03:00 +24°C° 0 mm 1 mps 666 mmHg 58%
    04:00 +24°C° 0,1 mm 1 mps 666 mmHg 58%
    05:00 +24°C° 0,1 mm 2 mps 666 mmHg 58%
    06:00 +24°C° 0,1 mm 2 mps 666 mmHg 58%
    07:00 +25°C° 0 mm 2 mps 667 mmHg 52%
    08:00 +26°C° 0 mm 2 mps 667 mmHg 47%
    09:00 +27°C° 0 mm 2 mps 668 mmHg 42%
    10:00 +28°C° 0 mm 2 mps 668 mmHg 37%
    11:00 +29°C° 0 mm 2 mps 668 mmHg 33%
    12:00 +30°C° 0 mm 2 mps 668 mmHg 29%
    13:00 +31°C° 0 mm 3 mps 667 mmHg 27%
    14:00 +31°C° 0 mm 3 mps 667 mmHg 26%
    15:00 +31°C° 0 mm 3 mps 667 mmHg 24%
    16:00 +31°C° 0,1 mm 3 mps 667 mmHg 24%
    17:00 +31°C° 0,1 mm 3 mps 667 mmHg 24%
    18:00 +30°C° 0,1 mm 3 mps 667 mmHg 24%
    19:00 +29°C° 0,1 mm 3 mps 667 mmHg 26%
    20:00 +29°C° 0,1 mm 3 mps 667 mmHg 29%
    21:00 +28°C° 0,1 mm 3 mps 667 mmHg 31%
    22:00 +27°C° 0 mm 3 mps 667 mmHg 35%
    23:00 +26°C° 0 mm 2 mps 667 mmHg 40%

    24 Agosto, Viernes

    Tiempo Temperatura Precipitaciones Viento Presión Humedad
    00:00 +25°C° 0 mm 2 mps 667 mmHg 44%
    01:00 +25°C° 0 mm 2 mps 666 mmHg 46%
    02:00 +24°C° 0 mm 1 mps 666 mmHg 48%
    03:00 +24°C° 0 mm 1 mps 666 mmHg 50%
    04:00 +24°C° 0 mm 1 mps 666 mmHg 50%
    05:00 +23°C° 0 mm 1 mps 666 mmHg 51%
    06:00 +23°C° 0 mm 1 mps 666 mmHg 52%
    07:00 +24°C° 0 mm 1 mps 667 mmHg 47%
    08:00 +25°C° 0 mm 2 mps 667 mmHg 42%
    09:00 +26°C° 0 mm 2 mps 668 mmHg 38%
    10:00 +27°C° 0 mm 2 mps 668 mmHg 33%
    11:00 +28°C° 0 mm 2 mps 668 mmHg 29%
    12:00 +29°C° 0 mm 2 mps 668 mmHg 25%
    13:00 +30°C° 0 mm 2 mps 668 mmHg 23%
    14:00 +30°C° 0 mm 3 mps 667 mmHg 21%
    15:00 +31°C° 0 mm 3 mps 667 mmHg 19%
    16:00 +30°C° 0 mm 3 mps 667 mmHg 18%
    17:00 +30°C° 0 mm 4 mps 667 mmHg 17%
    18:00 +30°C° 0 mm 4 mps 667 mmHg 17%
    19:00 +29°C° 0 mm 4 mps 667 mmHg 19%
    20:00 +28°C° 0 mm 4 mps 668 mmHg 22%
    21:00 +27°C° 0 mm 3 mps 668 mmHg 24%
    22:00 +26°C° 0 mm 3 mps 668 mmHg 30%
    23:00 +25°C° 0 mm 3 mps 667 mmHg 36%

    25 Agosto, Sábado

    Tiempo Temperatura Precipitaciones Viento Presión Humedad
    00:00 +25°C° 0 mm 2 mps 667 mmHg 42%
    01:00 +24°C° 0 mm 2 mps 667 mmHg 46%
    02:00 +24°C° 0 mm 2 mps 667 mmHg 49%
    03:00 +23°C° 0 mm 2 mps 666 mmHg 53%
    04:00 +23°C° 0 mm 2 mps 667 mmHg 53%
    05:00 +23°C° 0 mm 1 mps 667 mmHg 54%
    06:00 +23°C° 0 mm 1 mps 667 mmHg 54%
    07:00 +24°C° 0 mm 1 mps 667 mmHg 50%
    08:00 +25°C° 0 mm 1 mps 668 mmHg 46%
    09:00 +26°C° 0 mm 1 mps 668 mmHg 42%
    10:00 +28°C° 0 mm 2 mps 668 mmHg 37%
    11:00 +29°C° 0 mm 2 mps 668 mmHg 32%
    12:00 +30°C° 0 mm 2 mps 668 mmHg 27%
    13:00 +30°C° 0 mm 2 mps 668 mmHg 24%
    14:00 +31°C° 0 mm 2 mps 668 mmHg 22%
    15:00 +33°C° 0 mm 3 mps 667 mmHg 19%
    16:00 +31°C° 0 mm 3 mps 667 mmHg 19%
    17:00 +31°C° 0 mm 2 mps 667 mmHg 19%
    18:00 +31°C° 0 mm 2 mps 667 mmHg 19%
    19:00 +30°C° 0 mm 2 mps 667 mmHg 21%
    20:00 +30°C° 0 mm 2 mps 667 mmHg 24%
    21:00 +29°C° 0 mm 2 mps 668 mmHg 27%
    22:00 +28°C° 0 mm 2 mps 667 mmHg 29%
    23:00 +28°C° 0 mm 2 mps 667 mmHg 32%
    Mostrar más